Theta_e
296 296 296 296 296 296 296 297 298 299 299 298 298 297 297 298 298 298 299 299 302 304 303 305 305 304 303 304 304 303 306 304 303 308 309 308 307 308 310 310 312 311 312 312 309 312 309 303 304 305 302 299 297 295
295 295 295 296 296 296 296 296 296 298 298 298 297 297 297 298 298 299 298 300 301 302 304 304 304 304 304 304 303 303 304 303 303 306 304 305 305 305 308 310 309 309 306 307 306 306 301 301 302 300 298 297 295 294
295 294 295 295 295 296 296 295 296 298 298 298 298 298 298 298 298 299 298 301 302 303 303 303 304 304 304 304 304 304 303 303 302 302 304 306 308 306 308 306 308 306 304 302 303 300 301 301 299 297 297 296 295 293
294 294 294 295 295 296 295 295 296 298 297 298 297 297 297 299 299 298 298 299 302 301 303 303 302 302 305 305 305 304 304 304 304 305 306 307 305 304 306 307 305 304 303 301 300 299 300 299 299 295 293 292 292 292
293 293 293 295 295 295 295 296 298 298 297 297 297 298 298 298 298 298 298 298 302 301 303 302 302 302 303 304 303 304 303 303 302 303 304 304 303 303 302 303 304 302 301 300 300 298 298 297 295 293 293 292 291 291
292 293 293 294 295 295 295 297 298 297 296 296 296 297 298 297 297 300 299 300 303 301 300 302 301 300 301 303 303 301 303 301 301 302 303 303 303 302 301 303 304 303 300 300 301 297 296 295 293 293 291 291 290 290
292 292 294 294 295 295 295 297 298 296 295 295 297 297 297 298 300 301 300 302 301 301 300 300 301 300 300 299 298 299 299 299 299 299 301 301 301 300 299 302 302 302 300 298 297 296 295 294 294 292 292 291 291 290
292 293 294 295 295 295 297 298 297 295 295 296 297 296 298 300 300 298 301 302 301 300 300 300 300 300 299 298 299 297 298 297 298 297 298 299 298 298 303 302 301 300 298 298 298 297 295 294 292 291 291 290 288 286
293 294 294 294 293 296 298 297 295 295 296 296 296 299 299 299 298 300 302 303 302 301 299 297 299 298 298 298 297 298 296 297 296 298 298 297 299 300 301 302 301 299 299 298 296 295 294 293 292 291 291 289 287 284
293 294 294 293 296 297 297 295 295 296 296 297 298 296 296 298 300 298 298 298 299 299 299 299 296 299 299 297 297 297 294 297 300 298 296 299 300 300 301 301 300 299 298 296 295 295 294 293 292 290 289 287 286 284
294 293 293 296 298 297 295 295 295 295 296 297 294 294 299 300 298 296 294 297 297 300 298 298 298 299 298 298 297 296 297 296 299 299 297 299 302 298 299 300 299 298 297 296 296 295 294 293 291 289 287 287 285 284
292 294 297 297 295 294 294 295 295 296 297 296 298 299 298 297 295 296 294 296 300 301 298 299 299 299 297 296 300 297 298 296 303 294 295 297 298 299 299 299 298 297 296 296 296 294 292 291 290 289 287 286 286 285
297 296 295 294 293 295 296 296 296 297 298 296 295 294 294 291 292 291 292 299 298 296 296 296 297 297 295 295 295 297 296 294 293 290 295 297 294 298 298 297 297 296 296 295 295 294 293 291 290 289 288 288 287 286
297 294 294 295 296 296 296 297 297 298 296 294 291 290 288 289 298 298 301 298 294 292 296 296 295 296 292 296 295 295 294 295 290 294 301 293 296 296 295 294 295 294 291 292 292 292 291 290 289 290 290 289 287 285
296 296 296 295 296 296 297 297 297 296 295 295 293 294 292 296 295 296 295 293 292 293 296 295 294 295 292 294 293 294 296 295 296 296 293 289 293 294 293 293 289 288 285 286 289 288 288 288 287 288 288 288 288 286
296 295 295 296 294 294 297 296 295 295 293 293 294 291 292 292 295 294 296 297 294 291 294 295 296 294 296 294 298 295 299 297 296 298 293 291 293 292 289 288 286 287 287 287 287 287 286 286 286 286 284 285 285 285
294 293 294 295 294 294 294 294 294 292 292 293 296 295 290 287 293 295 296 297 294 293 293 296 295 299 296 296 299 300 298 299 296 294 292 292 293 292 290 288 285 286 285 285 284 285 284 284 285 283 281 281 282 282
294 294 294 295 295 294 295 294 292 293 294 293 295 295 294 294 293 294 295 295 295 293 294 297 295 297 292 298 299 299 294 292 291 291 291 291 291 291 291 290 286 285 284 284 284 283 283 283 282 281 282 281 281 280
294 294 294 294 294 293 291 293 292 293 294 294 294 293 294 293 292 293 293 293 294 294 293 293 297 299 300 298 298 295 293 292 291 289 288 289 289 289 290 289 287 286 285 285 285 283 283 283 283 283 282 281 280 279
293 293 293 293 293 292 292 291 292 293 293 294 294 294 295 294 294 294 295 294 293 292 294 296 296 294 294 293 293 293 290 289 289 289 288 288 288 288 288 289 288 287 287 286 285 285 284 283 283 282 282 281 280 278
293 292 293 293 293 292 289 290 291 292 292 293 293 294 295 295 295 295 294 292 291 293 294 293 291 290 289 289 290 291 290 290 290 289 288 288 287 288 288 288 287 287 286 286 286 285 285 284 284 283 283 282 281 279
292 292 291 291 289 289 288 289 290 289 292 292 292 294 293 294 294 291 292 289 289 290 288 290 289 289 289 288 287 289 289 289 289 288 288 288 287 287 287 287 287 286 286 286 286 286 286 285 284 284 284 282 280 279
290 290 290 287 285 284 286 288 290 290 290 291 292 292 291 290 293 291 291 290 287 288 288 288 289 288 287 288 289 288 289 289 287 288 288 288 287 287 287 287 287 287 287 287 287 287 286 286 285 284 283 281 280 279
291 287 283 283 285 283 283 284 288 290 288 290 290 290 290 290 292 291 290 287 286 288 287 288 290 288 287 287 287 286 286 287 286 286 287 287 286 285 285 285 285 285 286 286 287 286 285 285 283 282 281 279 278 277
284 283 280 278 281 282 279 279 281 286 284 286 287 287 288 289 287 290 288 287 284 285 285 286 288 288 286 285 283 283 285 286 285 283 283 285 284 283 282 282 283 283 284 285 284 284 283 282 282 281 280 279 276 274
281 280 283 280 280 284 285 284 282 282 281 283 283 285 285 285 286 288 288 283 285 284 281 284 286 286 284 284 282 282 282 283 283 281 280 281 282 282 280 277 278 282 282 283 284 283 282 282 281 279 277 276 275 273
280 280 286 287 289 288 283 283 287 282 282 283 282 281 281 283 284 285 282 281 281 283 283 284 285 284 282 281 281 281 282 283 282 279 279 279 280 281 281 280 278 279 281 283 283 282 282 280 278 277 274 272 271 271
282 283 282 280 280 284 278 277 279 287 288 289 284 282 282 282 284 279 278 282 283 283 283 283 283 282 281 281 281 280 279 280 279 279 278 278 278 278 279 280 280 281 281 281 281 280 280 279 277 274 272 270 269 270
282 281 281 278 276 276 281 288 287 288 287 286 283 281 285 280 277 279 280 281 282 282 281 280 281 281 281 280 280 279 279 279 279 270 268 267 272 276 277 278 279 279 279 279 278 278 277 276 275 273 271 270 269 268
283 282 279 273 277 283 280 286 287 285 285 285 282 279 278 275 275 276 278 279 280 279 280 282 281 281 279 279 278 278 279 279 279 279 271 270 274 275 275 277 277 276 276 276 275 274 274 274 272 271 269 267 266 265
280 276 276 274 278 284 285 284 284 285 284 285 283 280 276 270 274 274 275 276 278 279 280 279 279 280 279 278 278 277 276 277 278 279 278 277 275 274 275 275 275 275 275 274 273 272 271 270 269 267 266 264 263 263
279 283 282 284 282 279 278 277 284 278 274 276 275 270 270 269 270 270 273 275 276 276 276 277 277 275 276 276 277 277 277 276 276 276 276 275 274 273 273 273 273 273 272 271 271 269 269 268 266 265 263 262 262 261
280 278 277 280 281 281 279 279 279 279 275 275 274 271 271 272 272 268 272 274 275 275 275 274 274 274 274 275 275 274 275 275 275 274 274 274 273 272 272 271 271 271 270 269 268 267 266 266 264 263 262 262 261 260
Wind_Speed
17 18 18 18 19 19 16 13 14 19 21 22 24 24 24 30 22 21 15 25 14 3 5 4 6 3 5 5 4 5 4 1 1 4 3 3 4 6 4 4 5 7 6 3 2 2 5 4 4 6 3 3 6 8
16 16 17 17 18 19 17 16 13 19 19 20 21 22 23 23 24 16 7 16 22 5 3 7 1 5 3 13 5 1 2 5 4 3 3 2 2 0 5 4 2 2 4 4 5 4 1 2 1 2 3 5 6 8
16 14 15 17 18 19 16 15 16 18 19 18 21 20 22 23 24 19 9 14 11 2 2 2 2 3 5 7 11 4 2 4 3 3 3 2 3 2 2 2 2 1 1 3 2 2 3 1 3 3 2 4 6 6
14 14 14 14 17 19 18 15 16 18 16 17 20 18 21 17 18 16 15 20 9 2 1 2 7 7 12 7 7 1 4 5 3 2 1 1 2 3 4 3 3 3 3 4 1 2 2 5 2 5 5 7 9 9
13 14 13 14 17 18 17 18 19 20 18 17 18 17 17 14 16 17 20 22 17 2 2 1 5 5 12 21 17 14 16 5 3 1 2 2 2 2 1 2 1 3 5 4 4 6 3 3 7 7 8 6 8 13
13 15 15 15 18 18 14 19 19 21 19 17 17 18 15 14 20 14 3 18 29 14 3 2 4 5 6 16 13 8 11 1 1 3 2 1 1 3 2 2 1 1 3 3 3 5 3 6 8 4 7 9 7 9
14 16 16 18 20 18 16 21 22 20 19 15 18 11 11 10 17 2 3 7 21 16 2 3 1 3 4 5 3 1 3 2 3 2 2 2 1 3 2 2 3 4 4 6 9 9 6 3 5 7 10 12 16 15
17 17 17 18 18 16 19 22 21 18 13 17 11 5 8 8 9 7 4 15 17 9 2 3 0 2 4 2 2 2 2 3 4 2 1 2 2 2 0 0 5 5 7 7 4 3 5 8 10 8 15 14 10 9
18 17 20 18 16 20 25 22 18 16 18 12 7 6 3 4 4 3 7 13 9 4 4 2 4 3 1 1 1 3 2 3 2 2 1 3 2 1 3 6 7 6 5 7 5 7 9 11 9 8 12 9 10 7
18 16 19 13 17 24 24 21 17 18 15 4 3 3 2 3 4 2 3 3 4 3 3 2 0 2 3 1 2 2 2 1 2 2 1 2 2 3 5 7 7 7 8 10 9 5 5 6 8 7 7 7 9 10
22 15 17 17 25 23 22 20 21 16 5 2 1 2 1 4 4 3 3 3 2 2 2 1 2 3 3 3 2 1 2 0 2 3 3 1 2 3 3 6 5 6 9 8 5 6 8 10 9 7 6 10 15 17
17 16 24 27 23 24 20 18 19 8 3 5 3 5 3 6 4 5 1 2 2 3 0 3 2 3 1 2 3 2 2 2 2 0 3 1 3 2 5 6 6 7 7 6 7 8 10 12 15 13 13 14 18 20
27 32 26 25 24 23 19 16 11 5 2 2 4 4 3 3 6 3 2 1 2 1 1 2 3 2 3 4 3 2 3 3 1 3 3 3 3 1 5 6 5 5 8 6 4 8 12 11 14 17 14 16 20 21
33 29 27 25 23 22 17 6 3 1 1 3 3 4 3 3 2 1 1 0 2 2 4 4 3 3 1 3 1 4 2 2 3 1 4 2 2 4 4 4 6 5 4 6 6 10 12 15 14 16 20 20 20 20
32 28 25 23 18 15 10 11 4 7 5 3 4 3 2 0 2 2 2 2 2 2 4 3 3 3 2 3 1 3 2 1 4 4 2 1 2 4 4 3 4 5 4 4 6 9 11 13 15 13 14 17 19 19
28 22 19 17 14 11 11 4 6 4 4 3 5 3 1 3 2 3 2 1 3 1 2 3 3 3 1 3 2 2 4 4 2 1 2 2 4 4 3 4 4 5 6 8 8 10 11 13 13 12 11 12 15 18
17 6 19 16 12 11 9 3 4 5 3 3 2 2 2 2 2 1 2 3 3 3 2 2 3 3 2 2 1 1 1 1 3 3 3 4 4 5 4 6 7 7 9 8 9 10 9 9 12 12 10 8 10 12
20 14 12 15 3 9 6 8 4 4 4 2 2 2 2 2 2 2 2 2 3 2 2 1 3 3 2 2 1 2 2 3 4 4 3 4 4 7 7 7 8 9 11 10 10 10 11 13 10 7 10 11 10 9
20 16 11 7 4 5 3 5 4 3 2 1 1 1 2 1 1 2 2 3 1 2 3 3 4 2 2 2 2 2 3 2 2 2 2 6 6 8 9 11 11 12 12 10 8 7 7 5 5 8 9 10 9 9
17 14 10 7 5 4 4 3 3 3 2 1 1 2 1 1 2 2 3 4 3 2 4 4 2 1 1 2 2 2 2 6 6 4 2 2 5 8 8 8 8 9 10 9 8 7 6 4 4 6 8 9 9 10
12 11 7 5 4 7 3 2 3 1 2 2 1 1 1 1 2 3 3 4 4 3 2 2 2 2 4 5 9 8 6 5 2 2 3 3 4 9 7 7 9 9 8 7 6 6 5 5 6 7 7 5 3 4
7 8 4 7 6 4 3 4 2 1 2 1 1 1 2 2 2 2 2 4 2 2 2 1 1 2 3 4 5 8 9 13 13 14 15 14 3 3 5 7 6 5 6 7 8 8 7 4 7 7 8 6 7 7
3 4 5 7 5 5 3 5 4 3 3 2 1 2 2 2 2 1 3 2 1 3 3 2 5 10 9 12 14 14 12 14 10 9 9 11 11 10 10 7 4 1 1 4 7 8 7 6 6 10 11 10 9 11
6 5 4 3 3 0 3 4 2 2 3 3 2 2 2 1 1 3 3 1 1 2 3 4 6 4 7 10 5 7 9 9 14 13 10 11 8 8 8 8 7 7 4 3 3 5 8 8 10 14 14 16 17 18
6 6 5 4 3 5 5 4 4 4 2 2 2 3 2 2 2 2 2 1 2 2 3 6 6 4 3 3 4 7 8 5 7 6 10 7 10 8 7 7 8 7 6 3 7 7 8 11 14 14 17 19 20 21
5 4 3 2 3 3 1 2 0 2 1 3 1 2 2 3 3 1 1 0 1 1 1 3 2 3 4 4 2 4 7 4 5 7 6 6 4 2 4 3 3 6 7 1 5 9 10 10 12 14 16 19 22 23
4 3 2 1 0 1 3 2 1 3 2 2 2 2 3 3 1 1 0 4 1 2 4 4 3 6 6 7 7 6 3 5 6 10 7 7 6 3 5 5 4 2 4 3 4 7 10 14 16 17 18 17 18 21
3 1 3 3 3 2 3 2 2 2 1 2 2 2 4 5 3 1 1 3 6 6 6 8 9 10 10 9 8 9 11 12 13 13 14 15 14 12 10 7 6 4 5 6 6 8 13 15 15 17 18 20 19 18
2 2 3 4 4 3 1 1 1 1 2 0 2 1 2 2 1 3 3 1 2 5 7 9 10 9 10 9 8 8 11 12 5 4 3 1 4 7 7 6 7 8 9 10 10 11 13 15 17 20 21 22 20 18
2 1 3 2 2 1 2 2 1 1 1 2 3 2 2 2 3 5 4 5 5 3 5 10 12 11 13 13 11 8 7 6 6 5 4 3 5 8 6 7 9 12 13 15 18 19 16 17 19 20 20 20 19 19
1 3 3 2 2 1 1 2 3 2 1 1 2 3 2 2 1 4 5 3 1 6 9 9 7 5 14 12 10 7 1 2 2 5 7 10 12 10 9 10 11 12 13 14 15 16 17 17 18 19 19 19 17 16
2 1 2 1 2 2 3 1 1 1 1 2 1 2 2 3 1 3 7 1 6 9 6 8 9 6 8 8 7 4 4 8 10 13 14 14 13 13 12 11 11 11 12 13 14 15 15 17 18 18 19 17 16 14
2 2 2 2 2 2 1 2 1 1 2 1 1 2 1 3 3 2 2 4 4 7 9 9 9 9 9 9 10 12 12 13 12 12 12 13 13 12 11 11 11 11 13 14 15 15 16 17 18 17 16 15 14 12
Wind_Direction
176 185 193 193 194 200 202 206 205 204 209 213 213 217 219 220 218 220 242 236 224 246 259 241 223 149 153 184 151 176 82 290 107 151 159 204 198 206 180 198 172 174 169 183 148 162 260 137 89 185 181 54 140 145
175 184 190 192 196 199 202 207 218 209 218 221 219 222 216 212 214 225 236 232 234 245 291 296 249 226 243 184 133 121 154 167 175 138 200 137 279 89 166 183 13 188 176 185 179 208 258 304 299 81 130 140 158 145
175 184 193 200 199 203 208 213 224 220 219 217 213 213 208 216 217 215 222 227 193 220 283 300 261 94 218 162 159 124 278 169 193 183 157 135 240 121 135 210 116 35 119 104 105 256 199 240 78 69 89 127 138 142
178 189 196 201 197 204 204 223 220 210 208 203 195 209 208 217 200 216 224 235 250 142 204 311 276 277 181 202 221 100 75 19 54 10 104 163 155 164 209 139 154 200 112 131 348 307 345 266 158 140 94 93 100 118
190 195 200 202 201 203 208 207 195 199 196 200 208 217 207 222 232 228 238 233 215 208 155 203 344 14 188 200 192 147 158 202 167 177 96 214 115 121 5 87 178 185 162 159 221 196 158 213 146 134 127 122 130 131
200 203 203 204 203 207 220 200 200 197 207 209 218 221 237 246 230 226 202 229 216 239 119 90 288 325 73 188 173 164 185 175 140 133 168 191 191 130 106 168 278 207 165 167 181 127 79 116 123 113 120 138 133 126
211 203 206 210 205 205 216 198 196 201 208 217 221 241 232 251 155 201 219 178 194 187 96 95 6 326 38 74 57 88 156 128 99 134 75 135 48 77 100 171 186 97 96 92 110 106 65 154 160 144 137 138 136 129
207 202 207 200 214 229 198 191 194 197 212 216 216 207 204 223 231 233 125 164 168 104 47 109 165 25 29 45 60 357 60 25 17 119 32 81 17 44 86 258 123 107 107 112 97 44 141 123 122 124 130 123 118 120
193 197 197 212 223 200 182 183 187 202 198 208 257 251 253 192 193 175 148 146 156 135 140 104 130 196 27 69 62 31 49 49 296 82 33 72 337 225 219 165 162 166 158 156 88 93 115 137 131 135 137 129 130 137
200 192 208 221 182 174 176 176 180 180 194 249 216 85 12 261 317 83 87 36 24 358 47 103 88 136 95 44 38 80 12 99 75 272 55 75 245 262 206 185 160 163 131 125 112 118 128 138 154 157 163 150 154 159
189 210 214 175 168 166 168 170 169 178 213 202 240 192 202 12 62 31 45 74 325 49 27 121 131 121 340 99 141 26 151 33 105 248 125 311 274 235 178 164 142 148 155 170 157 156 169 163 162 152 146 153 156 160
196 184 160 151 160 162 164 169 172 204 231 203 129 102 29 31 34 72 344 324 57 170 31 111 129 125 42 92 97 1 105 41 175 150 82 254 253 231 150 156 155 153 149 156 165 159 167 167 167 160 157 163 171 176
149 145 148 152 150 149 151 151 190 230 57 86 49 53 46 337 43 98 195 347 81 206 174 112 53 79 45 43 58 85 75 199 39 53 217 227 266 122 129 118 110 131 147 144 143 166 173 164 169 169 167 184 181 180
140 141 139 139 139 142 143 175 122 8 111 70 77 39 98 352 89 194 35 189 263 153 110 99 63 74 19 55 111 89 239 86 49 81 235 248 215 128 94 93 120 143 147 153 157 163 167 167 170 185 190 184 181 180
132 129 128 129 123 125 142 148 24 53 59 65 57 42 62 11 24 7 345 328 323 201 93 66 57 81 28 90 45 110 59 223 198 223 234 250 41 104 90 84 99 130 126 119 140 149 160 164 165 166 183 188 192 186
128 129 124 126 98 98 130 141 37 52 57 60 38 46 9 52 12 9 4 49 342 65 73 58 94 62 342 138 112 204 155 213 229 83 107 90 72 71 63 74 72 84 113 127 137 149 153 160 163 163 165 181 189 188
103 94 120 119 84 96 148 75 51 49 70 44 41 14 89 119 154 344 337 331 338 65 99 108 77 191 104 61 74 163 165 104 110 77 61 81 94 100 90 74 73 101 107 111 115 127 131 143 149 148 138 152 174 184
99 110 116 160 131 56 48 35 70 62 57 15 62 37 21 22 42 328 307 315 32 85 86 126 128 67 117 126 221 115 88 67 66 73 54 42 56 79 108 105 95 109 107 105 117 124 136 141 141 133 143 145 147 152
100 96 89 120 60 63 56 31 47 84 55 3 8 35 60 35 321 283 284 306 73 95 87 39 66 59 48 16 49 83 111 98 119 67 48 50 78 89 93 108 114 108 108 111 114 128 143 145 162 163 163 166 166 171
86 91 90 92 71 66 58 14 42 77 61 346 27 31 36 343 322 329 13 17 38 52 46 43 36 17 360 352 6 87 105 132 127 112 84 47 81 100 99 111 110 119 111 105 107 122 129 122 151 171 178 183 181 187
69 57 65 71 61 65 88 33 50 103 138 69 345 34 60 357 14 24 29 346 56 33 63 30 31 32 13 55 56 99 122 159 199 162 151 139 122 114 105 108 121 125 130 138 144 164 178 204 197 181 177 177 176 175
23 32 53 37 62 44 73 26 121 186 84 165 54 41 42 38 18 23 21 46 56 11 3 21 41 34 33 39 24 59 90 96 94 100 113 123 116 105 104 135 135 157 182 193 197 203 215 199 182 196 186 164 156 140
32 42 53 31 61 40 276 355 59 15 74 319 47 44 8 49 6 34 73 74 96 355 347 43 74 87 77 77 81 65 77 97 82 91 105 107 112 115 109 87 67 107 251 244 233 235 216 199 194 181 166 162 162 143
43 52 49 48 60 245 353 12 14 40 21 34 58 36 353 309 353 63 82 64 328 2 23 26 117 92 60 52 54 45 33 93 100 82 92 113 105 93 98 87 63 42 0 284 204 179 171 166 168 162 155 146 147 141
68 337 75 347 333 55 32 11 352 42 35 4 63 349 319 356 75 62 94 105 41 32 16 20 52 73 101 98 60 44 50 84 98 86 53 95 119 111 87 78 63 42 31 88 121 137 150 158 161 160 156 155 147 139
71 303 82 197 310 89 196 56 4 196 108 29 292 303 9 65 61 67 62 329 79 36 6 33 35 88 66 53 89 28 10 78 106 90 48 47 48 189 145 100 30 23 33 91 143 134 144 159 157 150 149 154 154 147
59 320 323 2 259 86 30 8 36 90 89 155 265 27 60 77 195 176 128 15 101 75 71 52 80 119 121 112 90 66 70 127 105 108 92 69 64 100 155 123 115 27 33 106 151 165 154 142 139 142 140 146 152 156
173 101 107 292 32 19 129 54 67 42 340 359 71 53 137 182 192 244 186 80 118 115 97 91 105 116 116 110 110 110 105 114 114 109 97 82 79 85 91 96 100 114 130 133 142 147 148 141 139 139 141 137 137 146
29 324 78 2 2 31 64 36 115 52 342 359 118 177 142 67 3 24 33 19 135 143 130 120 116 125 118 117 117 124 138 140 120 63 61 8 20 58 76 87 103 116 126 128 130 134 135 134 134 134 133 132 132 136
306 98 83 62 98 256 248 360 92 80 5 75 116 84 58 47 40 40 44 64 99 68 182 176 164 157 149 142 139 153 189 230 250 231 165 199 175 137 128 122 117 120 126 128 125 122 126 127 128 127 127 126 129 129
358 67 62 78 209 259 161 94 36 7 358 3 48 107 152 197 93 34 16 338 110 153 148 137 145 193 192 177 175 170 136 328 300 201 191 151 142 144 143 134 130 131 132 131 132 133 133 130 129 129 129 128 130 131
36 155 135 349 283 310 24 81 1 192 306 78 310 59 28 51 283 309 11 28 168 160 161 161 143 122 149 161 161 162 153 136 132 136 142 140 138 137 136 134 135 136 133 130 129 130 134 132 132 132 131 130 131 131
35 43 40 75 22 350 313 81 354 329 28 58 341 150 151 160 223 244 53 55 100 127 130 129 128 130 135 139 137 136 137 134 134 133 133 133 132 134 134 134 134 135 134 130 129 132 132 133 132 133 134 134 134 132